(132093) = 2002 CW181

Discovered at Socorro on 2002-02-10 by LINEAR.

Orbit

Orbit type: Main Belt

Note: WebGL enabled browser required.

epoch2024-03-31.0
epoch JD2460400.5
perihelion date2022-10-27.16883
perihelion JD2459879.66883
argument of perihelion (°)323.11673
ascending node (°)84.87157
inclination (°)0.44988
eccentricity0.1788606
perihelion distance (AU)1.9156455
Tisserand w.r.t. Jupiter3.5
ΔV w.r.t. Earth (km/sec)8.6
semimajor axis (AU)2.3329114
mean anomaly (°)144.06333
mean daily motion (°/day)0.27660270
aphelion distance (AU)2.750
period (years)3.56
P-vector [x]0.66926390
P-vector [y]0.68357272
P-vector [z]0.29122870
Q-vector [x]-0.74298363
Q-vector [y]0.61155436
Q-vector [z]0.27198639
absolute magnitude17.28
phase slope0.15
uncertainty0
referenceMPEC 2024-F07
observations used443
oppositions15
arc length (days)9635
first opposition used1997
last opposition used2024
residual rms (arc-secs)0.64
perturbers coarse indicatorM-v
perturbers precise indicator003Ek
first observation date used1997-10-29.0
last observation date used2024-03-16.0
computer nameMPCLINUX
JD of orbit computation2456406.159052
perihelion JD uncertainty (days)9.6206E-05
argument of perihelion uncertainty (°)8.5949E-04
ascending node uncertainty (°)8.5909E-04
inclination uncertainty (°)5.1399E-06
eccentricity uncertainty 5.5113E-08
perihelion distance uncertainty (AU)1.3139E-07
Minimum Orbit Intersection Distances (in AU)
for orbit epoch: 2460400.5, reference: E2024-GD4
Mercury1.59802
Venus1.19317
Earth0.92585
Mars0.41498
Jupiter2.62245
Saturn6.91307
Uranus15.8691
Neptune27.8358

Observations

453 total observations over interval: 1997 10 29.27262 – 2024 03 16.567175
These data are available for download (format description).

Date (UT) J2000 RA J2000 Dec Magn Location Ref
1997 10 29.27262 02 52 39.60 +15 50 43.2   704 – Lincoln Laboratory ETS, New Mexico MPS 52732
1997 10 29.29287 02 52 38.35 +15 50 39.0   704 – Lincoln Laboratory ETS, New Mexico MPS 52732
1997 10 29.31321 02 52 37.10 +15 50 34.8   704 – Lincoln Laboratory ETS, New Mexico MPS 52732
1997 10 29.33374 02 52 35.69 +15 50 28.3   704 – Lincoln Laboratory ETS, New Mexico MPS 52732
1997 10 31.34707 02 50 45.15 +15 42 51.2   704 – Lincoln Laboratory ETS, New Mexico MPS 52732
1997 10 31.36393 02 50 44.10 +15 42 47.1   704 – Lincoln Laboratory ETS, New Mexico MPS 52732
1997 10 31.38010 02 50 43.02 +15 42 42.9   704 – Lincoln Laboratory ETS, New Mexico MPS 52732
1997 10 31.39661 02 50 42.08 +15 42 38.7   704 – Lincoln Laboratory ETS, New Mexico MPS 52732
1997 10 31.41602 02 50 40.65 +15 42 33.8   704 – Lincoln Laboratory ETS, New Mexico MPS 52732
1997 11 04.03825 02 47 16.06 +15 28 19.5 18.6 V 557 – Ondrejov MPS 52732
1997 11 04.06372 02 47 14.53 +15 28 13.4   557 – Ondrejov MPS 52732
1997 11 04.08635 02 47 13.23 +15 28 08.0   557 – Ondrejov MPS 52732
1997 11 06.14038 02 45 16.16 +15 19 58.1 18.7   704 – Lincoln Laboratory ETS, New Mexico MPS 52732
1997 11 06.18050 02 45 13.89 +15 19 49.4   704 – Lincoln Laboratory ETS, New Mexico MPS 52732
1997 11 06.20032 02 45 12.66 +15 19 43.1   704 – Lincoln Laboratory ETS, New Mexico MPS 52732
1997 11 06.22033 02 45 11.44 +15 19 40.7   704 – Lincoln Laboratory ETS, New Mexico MPS 52732
1997 12 04.24189 02 24 52.80 +13 55 40.8 20.0 V 691 – Steward Observatory, Kitt Peak-Spacewatch MPS 52732
1997 12 04.26426 02 24 52.27 +13 55 38.7 20.0 V 691 – Steward Observatory, Kitt Peak-Spacewatch MPS 52732
1997 12 04.29303 02 24 51.65 +13 55 37.5 19.7 V 691 – Steward Observatory, Kitt Peak-Spacewatch MPS 52732
2002 01 14.39992 09 24 24.96 +15 47 55.0 20.1   704 – Lincoln Laboratory ETS, New Mexico MPS 52732
2002 01 14.41486 09 24 24.19 +15 47 59.6 20.3   704 – Lincoln Laboratory ETS, New Mexico MPS 52732
2002 01 14.41511 09 24 24.17 +15 47 58.9 20.1   704 – Lincoln Laboratory ETS, New Mexico MPS 52732
2002 01 14.43016 09 24 23.33 +15 48 03.0 20.0   704 – Lincoln Laboratory ETS, New Mexico MPS 52732
2002 01 14.43041 09 24 23.32 +15 48 02.8 19.9   704 – Lincoln Laboratory ETS, New Mexico MPS 52732
2002 01 14.44594 09 24 22.43 +15 48 07.0 20.1   704 – Lincoln Laboratory ETS, New Mexico MPS 52732
2002 01 14.44620 09 24 22.51 +15 48 07.4 19.6   704 – Lincoln Laboratory ETS, New Mexico MPS 52732
2002 02 08.33075 08 59 03.72 +17 45 40.7 20.4 V 691 – Steward Observatory, Kitt Peak-Spacewatch MPS 52732
2002 02 08.35386 08 59 02.22 +17 45 46.8 20.4 V 691 – Steward Observatory, Kitt Peak-Spacewatch MPS 52732
2002 02 08.37628 08 59 00.76 +17 45 52.5 20.4 V 691 – Steward Observatory, Kitt Peak-Spacewatch MPS 52733
2002 02 10.23716 08 57 05.88 +17 53 59.1 19.5   704 – Lincoln Laboratory ETS, New Mexico MPS 50364
2002 02 10.25130 08 57 05.01 +17 54 03.8 20.1   704 – Lincoln Laboratory ETS, New Mexico MPS 50364
2002 02 10.28356 08 57 02.88 +17 54 12.0 20.0   704 – Lincoln Laboratory ETS, New Mexico MPS 50364
2002 02 10.29864 08 57 01.97 +17 54 15.2 19.9   704 – Lincoln Laboratory ETS, New Mexico MPS 50364
2002 02 12.23916 08 55 05.11 +18 02 22.6 19.7   704 – Lincoln Laboratory ETS, New Mexico MPS 50364
2002 02 12.25340 08 55 04.32 +18 02 25.4 20.0   704 – Lincoln Laboratory ETS, New Mexico MPS 50364
2002 02 12.26763 08 55 03.41 +18 02 29.4 19.9   704 – Lincoln Laboratory ETS, New Mexico MPS 50364
2002 02 12.28209 08 55 02.55 +18 02 33.3 19.7   704 – Lincoln Laboratory ETS, New Mexico MPS 50364
2002 02 12.29631 08 55 01.67 +18 02 36.3 20.1   704 – Lincoln Laboratory ETS, New Mexico MPS 50364
2002 02 20.24612 08 47 48.85 +18 31 38.0 19.8   704 – Lincoln Laboratory ETS, New Mexico MPS 52733
2002 02 20.25985 08 47 48.26 +18 31 40.0 20.2   704 – Lincoln Laboratory ETS, New Mexico MPS 52733
2002 02 20.27361 08 47 47.49 +18 31 42.6 20.3   704 – Lincoln Laboratory ETS, New Mexico MPS 52733
2002 02 20.28752 08 47 46.79 +18 31 45.9 20.2   704 – Lincoln Laboratory ETS, New Mexico MPS 52733
2004 09 13.35818 01 07 42.74 +06 16 33.1 19.4 R 699 – Lowell Observatory-LONEOS MPS 120444
2004 09 13.37280 01 07 42.12 +06 16 32.0   699 – Lowell Observatory-LONEOS MPS 120444
2004 09 13.38741 01 07 41.57 +06 16 29.1   699 – Lowell Observatory-LONEOS MPS 120444
2004 09 13.40200 01 07 41.20 +06 16 25.9   699 – Lowell Observatory-LONEOS MPS 120444
2004 09 17.27750 01 05 34.96 +06 02 45.6 19.4   704 – Lincoln Laboratory ETS, New Mexico MPS 114315
2004 09 17.28917 01 05 34.57 +06 02 42.5 20.1   704 – Lincoln Laboratory ETS, New Mexico MPS 114315
2004 09 17.31253 01 05 33.62 +06 02 36.7 19.9   704 – Lincoln Laboratory ETS, New Mexico MPS 114315
2004 09 17.32422 01 05 33.15 +06 02 34.5 19.8   704 – Lincoln Laboratory ETS, New Mexico MPS 114315
2004 09 22.28852 01 02 16.48 +05 41 38.0 19.3   704 – Lincoln Laboratory ETS, New Mexico MPS 114315
2004 09 22.30069 01 02 15.93 +05 41 35.1 19.8   704 – Lincoln Laboratory ETS, New Mexico MPS 114315
2004 09 22.31283 01 02 15.31 +05 41 31.3 20.3   704 – Lincoln Laboratory ETS, New Mexico MPS 114315
2004 09 22.32497 01 02 14.79 +05 41 27.8 19.8   704 – Lincoln Laboratory ETS, New Mexico MPS 114315
2004 09 22.33711 01 02 14.26 +05 41 24.9 19.6   704 – Lincoln Laboratory ETS, New Mexico MPS 114315
2004 09 24.28952 01 00 47.74 +05 32 15.8 19.1   704 – Lincoln Laboratory ETS, New Mexico MPS 118370
2004 09 24.30173 01 00 47.11 +05 32 12.2 19.7   704 – Lincoln Laboratory ETS, New Mexico MPS 118370
2004 09 24.31392 01 00 46.51 +05 32 09.4 19.4   704 – Lincoln Laboratory ETS, New Mexico MPS 118370
2004 10 05.22568 00 51 37.72 +04 35 04.7 18.7 R 699 – Lowell Observatory-LONEOS MPS 116576
2004 10 05.24594 00 51 36.61 +04 34 58.3   699 – Lowell Observatory-LONEOS MPS 116576
2004 10 05.26623 00 51 35.46 +04 34 51.2   699 – Lowell Observatory-LONEOS MPS 116576
2004 10 05.28652 00 51 34.31 +04 34 44.2   699 – Lowell Observatory-LONEOS MPS 116576
2004 10 07.28202 00 49 47.40 +04 23 46.0 18.9   704 – Lincoln Laboratory ETS, New Mexico MPS 116576
2004 10 07.29345 00 49 46.75 +04 23 42.3 19.0   704 – Lincoln Laboratory ETS, New Mexico MPS 116576
2004 10 07.30445 00 49 46.14 +04 23 38.7 19.6   704 – Lincoln Laboratory ETS, New Mexico MPS 116576
2004 10 07.31555 00 49 45.45 +04 23 35.0 19.0   704 – Lincoln Laboratory ETS, New Mexico MPS 116576
2004 10 07.32671 00 49 44.85 +04 23 31.0 19.2   704 – Lincoln Laboratory ETS, New Mexico MPS 116576
2004 10 08.22386 00 48 57.08 +04 18 33.9 18.8 R 699 – Lowell Observatory-LONEOS MPS 116576
2004 10 08.24414 00 48 55.97 +04 18 27.4   699 – Lowell Observatory-LONEOS MPS 116577
2004 10 08.26442 00 48 54.79 +04 18 21.6   699 – Lowell Observatory-LONEOS MPS 116577
2004 10 08.28467 00 48 53.61 +04 18 14.2   699 – Lowell Observatory-LONEOS MPS 116577
2004 10 09.20018 00 48 04.71 +04 13 12.4 18.8   704 – Lincoln Laboratory ETS, New Mexico MPS 116577
2004 10 09.21090 00 48 04.15 +04 13 09.2 19.2   704 – Lincoln Laboratory ETS, New Mexico MPS 116577
2004 10 09.22161 00 48 03.55 +04 13 05.9 19.4   704 – Lincoln Laboratory ETS, New Mexico MPS 116577
2004 10 09.23233 00 48 02.93 +04 13 02.4 19.2   704 – Lincoln Laboratory ETS, New Mexico MPS 116577
2004 10 09.24304 00 48 02.31 +04 12 58.9 19.3   704 – Lincoln Laboratory ETS, New Mexico MPS 116577
2004 10 15.27206 00 42 46.10 +03 40 49.2 18.4 R G96 – Mt. Lemmon Survey MPS 117578
2004 10 15.27994 00 42 45.67 +03 40 46.9 18.5 R G96 – Mt. Lemmon Survey MPS 117578
2004 10 15.28782 00 42 45.25 +03 40 44.4 18.4 R G96 – Mt. Lemmon Survey MPS 117578
2004 10 15.29571 00 42 44.82 +03 40 42.0 18.5 R G96 – Mt. Lemmon Survey MPS 117578
2004 10 20.20600 00 38 47.16 +03 16 52.0 19.3   704 – Lincoln Laboratory ETS, New Mexico MPS 117578
2004 10 20.21540 00 38 46.75 +03 16 49.2 19.5   704 – Lincoln Laboratory ETS, New Mexico MPS 117578
2004 10 20.22481 00 38 46.31 +03 16 47.2 20.1   704 – Lincoln Laboratory ETS, New Mexico MPS 117578
2004 10 20.23422 00 38 45.92 +03 16 44.9 20.1   704 – Lincoln Laboratory ETS, New Mexico MPS 117578
2004 11 03.14342 00 30 34.63 +02 29 46.8 19.6 V 691 – Steward Observatory, Kitt Peak-Spacewatch MPS 118370
